Korbel Past Weather

Last 30 Days

High: 50ºf @2:51 AM    Low: 49ºf @12:51 AM     Approx. Precipitation / Rain Total: in.
Time (PDT)Temp. (ºf)Humidity (%)Dew Point (ºf)Barometer (inHG)Wind Speed (mph)Wind DirectionWind Gust (mph)1hr. Precip / Rain Total (in.)Snow Depth
7:51 AM508545.67-0.87nne3.48--
6:51 AM498645-0.87nw3.48--
5:51 AM498745.3---3.48--
4:51 AM508746.28---2.61--
3:51 AM508746.28---2.61--
2:51 AM508746.28---2.61--
1:51 AM508846.59---1.74--
12:51 AM499246.78---1.74--
High: 76ºf @3:51 PM    Low: 46ºf @1:51 AM     Approx. Precipitation / Rain Total: in.
Time (PDT)Temp. (ºf)Humidity (%)Dew Point (ºf)Barometer (inHG)Wind Speed (mph)Wind DirectionWind Gust (mph)1hr. Precip / Rain Total (in.)Snow Depth
11:51 PM489045.21---3.48--
10:51 PM508645.98-0.87ese4.34--
9:51 PM527945.69-1.74e6.08--
8:51 PM567247.1-0.87se6.08--
7:51 PM606548.2-1.74ene6.95--
6:51 PM655648.91-0.87e11.3--
5:51 PM705050.49-1.74ene6.95--
4:51 PM724750.65-1.74e6.08--
3:51 PM764351.87-1.74nne9.56--
2:51 PM754451.59-1.74ene8.69--
1:51 PM724448.88-2.61n6.95--
12:51 PM694848.48-1.74ene6.95--
11:51 AM655447.94-1.74ene5.21--
10:51 AM606146.51-2.61se5.21--
9:51 AM557045.4-1.74e5.21--
8:51 AM508144.4-0.87ene3.48--
7:51 AM478643.03-0.87e2.61--
6:51 AM478843.63---3.48--
5:51 AM478943.93---2.61--
4:51 AM478843.63---2.61--
3:51 AM478943.93---1.74--
2:51 AM478843.63---2.61--
1:51 AM468942.94---2.61--
12:51 AM468942.94-0.87n2.61--
High: 68ºf @3:51 PM    Low: 46ºf @11:51 PM     Approx. Precipitation / Rain Total: in.
Time (PDT)Temp. (ºf)Humidity (%)Dew Point (ºf)Barometer (inHG)Wind Speed (mph)Wind DirectionWind Gust (mph)1hr. Precip / Rain Total (in.)Snow Depth
11:51 PM468842.65-0.87nne3.48--
10:51 PM478442.42---4.34--
9:51 PM498043.1-0.87ese5.21--
8:51 PM527343.62-0.87ese5.21--
7:51 PM556443.05-1.74e7.82--
6:51 PM595844.24-1.74ne8.69--
5:51 PM635345.59-1.74ne9.56--
4:51 PM645246.02-1.74ene7.82--
3:51 PM685048.66-0.87ne8.69--
2:51 PM685249.71-1.74ene7.82--
1:51 PM645748.46-2.61ne7.82--
12:51 PM636048.89-1.74ne6.95--
11:51 AM616348.31-1.74e7.82--
10:51 AM596446.84-2.61ne6.95--
9:51 AM586947.89-1.74se6.08--
8:51 AM547847.3-0.87se6.08--
7:51 AM528447.32-0.87e7.82--
6:51 AM528647.94---4.34--
5:51 AM528547.63---2.61--
4:51 AM528347---2.61--
3:51 AM528447.32---1.74--
2:51 AM528246.68---1.74--
1:51 AM528547.63---1.74--
12:51 AM528246.68---1.74--
High: 73ºf @2:51 PM    Low: 48ºf @6:51 AM     Approx. Precipitation / Rain Total: in.
Time (PDT)Temp. (ºf)Humidity (%)Dew Point (ºf)Barometer (inHG)Wind Speed (mph)Wind DirectionWind Gust (mph)1hr. Precip / Rain Total (in.)Snow Depth
11:51 PM528347---3.48--
10:51 PM518546.65---3.48--
9:51 PM518145.38-0.87se5.21--
8:51 PM537545.29-0.87ene6.95--
7:51 PM576645.75-1.74se7.82--
6:51 PM605644.26-1.74e10.43--
5:51 PM644944.45-1.74e9.56--
4:51 PM674947.2-1.74nne11.3--
3:51 PM704949.95-1.74ene7.82--
2:51 PM734650.98-1.74ene6.95--
1:51 PM714649.16-1.74wsw10.43--
12:51 PM715051.41-0.87se8.69--
11:51 AM645949.38-1.74e7.82--
10:51 AM616247.88-2.61e7.82--
9:51 AM567046.35-1.74nnw6.08--
8:51 AM517844.38-0.87ne3.48--
7:51 AM498143.43-0.87e4.34--
6:51 AM488343.09---3.48--
5:51 AM488543.71---2.61--
4:51 AM488543.71---2.61--
3:51 AM488443.4-0.87ne3.48--
2:51 AM488443.4---1.74--
1:51 AM488543.71---2.61--
12:51 AM488543.71-0.87ene3.48--
High: 73ºf @2:51 PM    Low: 44ºf @12:51 AM     Approx. Precipitation / Rain Total: in.
Time (PDT)Temp. (ºf)Humidity (%)Dew Point (ºf)Barometer (inHG)Wind Speed (mph)Wind DirectionWind Gust (mph)1hr. Precip / Rain Total (in.)Snow Depth
11:51 PM488644.01---2.61--
10:51 PM488543.71-0.87e4.34--
9:51 PM498043.1-0.87ese5.21--
8:51 PM527243.26-1.74ese6.95--
7:51 PM576143.68-1.74ese13.03--
6:51 PM605342.82-2.61ne9.56--
5:51 PM644642.8-2.61ene8.69--
4:51 PM674041.87-2.61nnw8.69--
3:51 PM713642.69-3.48n9.56--
2:51 PM733745.17-1.74e10.43--
1:51 PM704145.21-2.61ene11.3--
12:51 PM684445.26-1.74ene6.95--
11:51 AM664745.18-2.61ne6.95--
10:51 AM625043.14-2.61e6.08--
9:51 AM585742.85-1.74e4.34--
8:51 AM556242.22-1.74e5.21--
7:51 AM516840.81-1.74ese5.21--
6:51 AM457938.89-1.74nne4.34--
5:51 AM457938.89-1.74nne6.08--
4:51 AM458139.53-0.87ene4.34--
3:51 AM458340.15-0.87ene3.48--
2:51 AM458440.46-0.87nne4.34--
1:51 AM458440.46-0.87ne3.48--
12:51 AM448439.48---4.34--
High: 71ºf @1:51 PM    Low: 44ºf @11:51 PM     Approx. Precipitation / Rain Total: in.
Time (PDT)Temp. (ºf)Humidity (%)Dew Point (ºf)Barometer (inHG)Wind Speed (mph)Wind DirectionWind Gust (mph)1hr. Precip / Rain Total (in.)Snow Depth
11:51 PM448339.17-0.87sse4.34--
10:51 PM468140.5-0.87e3.48--
9:51 PM497039.65-0.87nnw3.48--
8:51 PM526540.6-0.87se6.95--
7:51 PM546040.43-1.74ne15.64--
6:51 PM585441.45-1.74e13.03--
5:51 PM615243.25-3.48ne13.9--
4:51 PM635144.58-3.48ne12.17--
3:51 PM675047.74-3.48nne13.9--
2:51 PM695150.11-2.61ne11.3--
1:51 PM715151.95-1.74ne10.43--
12:51 PM705653.57-1.74e10.43--
11:51 AM666252.6-1.74n7.82--
10:51 AM588051.86-2.61ene5.21--
9:51 AM529450.33-1.74e4.34--
8:51 AM519248.76---1.74--
7:51 AM508846.59---2.61--
6:51 AM489145.5---2.61--
5:51 AM478943.93-0.87ne3.48--
4:51 AM479044.22---2.61--
3:51 AM469444.37---1.74--
2:51 AM469243.81---4.34--
1:51 AM469243.81-0.87nne2.61--
12:51 AM479044.22---2.61--
High: 78ºf @1:51 PM    Low: 43ºf @2:51 AM     Approx. Precipitation / Rain Total: in.
Time (PDT)Temp. (ºf)Humidity (%)Dew Point (ºf)Barometer (inHG)Wind Speed (mph)Wind DirectionWind Gust (mph)1hr. Precip / Rain Total (in.)Snow Depth
11:51 PM498544.69-0.87ne3.48--
10:51 PM508244.72-0.87e3.48--
9:51 PM537545.29-0.87ese4.34--
8:51 PM566544.4-1.74e9.56--
7:51 PM605644.26-1.74e10.43--
6:51 PM644843.91-2.61ene9.56--
5:51 PM684042.77-1.74ene10.43--
4:51 PM704145.21-2.61e10.43--
3:51 PM753746.94-1.74n10.43--
2:51 PM773748.71-1.74nne7.82--
1:51 PM783144.89-2.61ene13.03--
12:51 PM753746.94-1.74e8.69--
11:51 AM704849.4-1.74ene5.21--
10:51 AM635546.57-2.61ene6.08--
9:51 AM576344.53-2.61ese5.21--
8:51 AM527443.97-2.61s5.21--
7:51 AM458941.96-1.74se4.34--
6:51 AM449141.54-0.87sse2.61--
5:51 AM449141.54-0.87ene3.48--
4:51 AM449141.54---1.74--
3:51 AM448640.09-0.87n2.61--
2:51 AM439140.56-0.87ne3.48--
1:51 AM449041.26-0.87n2.61--
12:51 AM439240.84---2.61--
High: 72ºf @1:51 PM    Low: 43ºf @2:51 AM     Approx. Precipitation / Rain Total: in.
Time (PDT)Temp. (ºf)Humidity (%)Dew Point (ºf)Barometer (inHG)Wind Speed (mph)Wind DirectionWind Gust (mph)1hr. Precip / Rain Total (in.)Snow Depth
11:51 PM458941.96-0.87e3.48--
10:51 PM478342.11---4.34--
9:51 PM497641.77---5.21--
8:51 PM536641.95-0.87se6.08--
7:51 PM565740.98-0.87ese8.69--
6:51 PM605041.3-1.74se11.3--
5:51 PM634641.89-3.48ese9.56--
4:51 PM664242.24-2.61ene12.17--
3:51 PM703943.89-2.61e8.69--
2:51 PM713944.78-1.74ene7.82--
1:51 PM724046.34-2.61e11.3--
12:51 PM714146.1-1.74ene8.69--
11:51 AM664644.62-1.74nnw7.82--
10:51 AM625445.16-1.74n6.08--
9:51 AM576043.25-1.74n6.95--
8:51 AM536842.72-1.74se6.95--
7:51 AM468341.13-0.87ne3.48--
6:51 AM458540.77-0.87nne2.61--
5:51 AM458641.07-0.87n4.34--
4:51 AM448840.68-0.87nnw3.48--
3:51 AM448840.68---3.48--
2:51 AM438839.69---3.48--
1:51 AM448740.38-0.87nnw4.34--
12:51 AM448740.38-0.87n4.34--
High: 68ºf @1:51 PM    Low: 45ºf @11:51 PM     Approx. Precipitation / Rain Total: in.
Time (PDT)Temp. (ºf)Humidity (%)Dew Point (ºf)Barometer (inHG)Wind Speed (mph)Wind DirectionWind Gust (mph)1hr. Precip / Rain Total (in.)Snow Depth
11:51 PM458440.46-1.74n3.48--
10:51 PM468240.82---5.21--
9:51 PM487640.8-0.87ese6.95--
8:51 PM507040.61-0.87se6.08--
7:51 PM546241.28-0.87ese7.82--
6:51 PM565740.98-2.61ne9.56--
5:51 PM605242.32-2.61ese10.43--
4:51 PM614941.7-2.61n12.17--
3:51 PM654543.14-2.61ene11.3--
2:51 PM654543.14-2.61ese12.17--
1:51 PM684646.44-2.61e9.56--
12:51 PM654945.37-2.61ene9.56--
11:51 AM625545.64-2.61ne11.3--
10:51 AM586144.63-2.61ne7.82--
9:51 AM556543.45-1.74ne7.82--
8:51 AM546642.9-1.74ese6.95--
7:51 AM487741.14-0.87ne3.48--
6:51 AM468240.82---3.48--
5:51 AM468341.13---1.74--
4:51 AM468341.13---2.61--
3:51 AM478442.42---3.48--
2:51 AM478342.11---3.48--
1:51 AM478342.11---5.21--
12:51 AM468742.35-0.87ene4.34--
High: 76ºf @1:51 PM    Low: 45ºf @5:51 AM     Approx. Precipitation / Rain Total: in.
Time (PDT)Temp. (ºf)Humidity (%)Dew Point (ºf)Barometer (inHG)Wind Speed (mph)Wind DirectionWind Gust (mph)1hr. Precip / Rain Total (in.)Snow Depth
11:51 PM458741.37-1.74e4.34--
10:51 PM468541.75-0.87se2.61--
9:51 PM487941.8-0.87s5.21--
8:51 PM517041.56-1.74ene6.08--
7:51 PM556342.64-1.74ene9.56--
6:51 PM605644.26-1.74ese6.95--
5:51 PM654945.37-1.74ese9.56--
4:51 PM694546.76-1.74nne7.82--
3:51 PM734349.17-1.74e9.56--
2:51 PM764251.23-2.61e7.82--
1:51 PM763949.24-1.74n8.69--
12:51 PM744048.13-0.87e7.82--
11:51 AM704849.4-1.74nnw7.82--
10:51 AM645547.5-2.61ne6.08--
7:51 AM518446.34-0.87n2.61--
6:51 AM469444.37-0.87n3.48--
5:51 AM459543.65-0.87nne4.34--
1:51 AM498544.69-1.74nnw2.61--
12:51 AM508445.36-0.87nnw2.61--
High: 79ºf @2:51 PM    Low: 49ºf @1:51 AM     Approx. Precipitation / Rain Total: in.
Time (PDT)Temp. (ºf)Humidity (%)Dew Point (ºf)Barometer (inHG)Wind Speed (mph)Wind DirectionWind Gust (mph)1hr. Precip / Rain Total (in.)Snow Depth
11:51 PM518446.34-0.87ne3.48--
10:51 PM537846.33-1.74ene4.34--
9:51 PM557346.5-1.74ene5.21--
8:51 PM596748.06-0.87ne6.95--
7:51 PM636350.2-1.74ene5.21--
6:51 PM675550.29-1.74e8.69--
5:51 PM715151.95-2.61ne6.08--
4:51 PM745255.24-1.74e8.69--
3:51 PM784756.11-1.74ene6.95--
2:51 PM794555.82-1.74e6.95--
1:51 PM764754.29-2.61e7.82--
12:51 PM745054.16-0.87ne7.82--
11:51 AM695451.65-1.74e6.95--
10:51 AM646150.28-2.61n6.08--
9:51 AM606648.61-0.87nnw6.95--
8:51 AM557446.87-1.74nne5.21--
7:51 AM528246.68-0.87ene5.21--
6:51 AM508946.89-0.87e3.48--
5:51 AM499146.49---4.34--
4:51 AM499246.78-0.87e4.34--
3:51 AM499046.2---3.48--
2:51 AM499046.2---3.48--
1:51 AM499146.49-0.87ene3.48--
12:51 AM499547.63---4.34--
High: 83ºf @2:51 PM    Low: 49ºf @11:51 PM     Approx. Precipitation / Rain Total: in.
Time (PDT)Temp. (ºf)Humidity (%)Dew Point (ºf)Barometer (inHG)Wind Speed (mph)Wind DirectionWind Gust (mph)1hr. Precip / Rain Total (in.)Snow Depth
11:51 PM499347.06-1.74ene5.21--
10:51 PM519048.17-1.74ene7.82--
9:51 PM548148.3-2.61ene6.95--
8:51 PM597049.23-1.74e7.82--
7:51 PM646150.28-0.87ene6.08--
6:51 PM695351.15-1.74ne6.95--
5:51 PM754652.8-0.87ne8.69--
4:51 PM774755.2-2.61ne11.3--
3:51 PM814255.72-1.74nne7.82--
2:51 PM834156.84-1.74ne7.82--
1:51 PM824155.95-1.74ene6.95--
12:51 PM804254.82-2.61ne6.95--
11:51 AM784756.11-0.87ne6.08--
10:51 AM735254.32-1.74n6.08--
9:51 AM696154.98-2.61nne5.21--
8:51 AM656954.57-0.87nne3.48--
7:51 AM617653.38-0.87nne4.34--
6:51 AM549051.13-1.74n4.34--
5:51 AM549151.43---4.34--
4:51 AM559152.42-1.74n2.61--
3:51 AM578853.48-1.74nnw3.48--
2:51 AM597952.49-1.74nnw4.34--
1:51 AM607953.47---2.61--
12:51 AM637253.83-1.74n2.61--
High: 95ºf @2:51 PM    Low: 55ºf @5:51 AM     Approx. Precipitation / Rain Total: in.
Time (PDT)Temp. (ºf)Humidity (%)Dew Point (ºf)Barometer (inHG)Wind Speed (mph)Wind DirectionWind Gust (mph)1hr. Precip / Rain Total (in.)Snow Depth
11:51 PM656753.77-0.87nne4.34--
10:51 PM685953.13-2.61n3.48--
9:51 PM715654.5-2.61n5.21--
8:51 PM744651.89-2.61nne5.21--
7:51 PM783850.31-0.87ne4.34--
6:51 PM813550.74-0.87e4.34--
5:51 PM863050.92-0.87e5.21--
4:51 PM892851.62-0.87e6.95--
3:51 PM942046.77-1.74nne7.82--
2:51 PM952351.34-1.74n5.21--
1:51 PM922955.14-1.74n5.21--
12:51 PM883355.25-1.74nnw5.21--
11:51 AM824659.15-2.61sse5.21--
10:51 AM784756.11-1.74s4.34--
9:51 AM726157.8-1.74ssw4.34--
7:51 AM627955.41-1.74s3.48--
6:51 AM579455.29---0.87--
5:51 AM559453.3---1.74--
4:51 AM569253.71---1.74--
3:51 AM579054.09---1.74--
2:51 AM598454.17-0.87w2.61--
1:51 AM608455.15---0.87--
12:51 AM627654.34---4.34--
High: 89ºf @3:51 PM    Low: 48ºf @1:51 AM     Approx. Precipitation / Rain Total: in.
Time (PDT)Temp. (ºf)Humidity (%)Dew Point (ºf)Barometer (inHG)Wind Speed (mph)Wind DirectionWind Gust (mph)1hr. Precip / Rain Total (in.)Snow Depth
11:51 PM656954.57-1.74n4.34--
10:51 PM666754.72-0.87nnw4.34--
9:51 PM696355.87-2.61-5.21--
8:51 PM735153.79-1.74nnw4.34--
7:51 PM744953.61-0.87ene5.21--
6:51 PM784655.52-0.87ne5.21--
5:51 PM833350.9-0.87nne6.08--
4:51 PM863151.81-0.87nne5.21--
3:51 PM892851.62-0.87n6.08--
2:51 PM873354.38-0.87sse5.21--
1:51 PM824256.61-0.87ne6.95--
12:51 PM803952.79-0.87e5.21--
11:51 AM735555.86-1.74n4.34--
10:51 AM676554.84-2.61sse6.08--
9:51 AM607853.12-1.74sse5.21--
8:51 AM529951.73-0.87nnw3.48--
7:51 AM499948.73-1.74s3.48--
6:51 AM499948.73---2.61--
5:51 AM489947.73-0.87nne2.61--
4:51 AM499848.46---2.61--
3:51 AM499848.46---2.61--
2:51 AM499848.46---2.61--
1:51 AM489747.19---3.48--
12:51 AM499547.63-0.87nne3.48--
High: 84ºf @3:51 PM    Low: 47ºf @4:51 AM     Approx. Precipitation / Rain Total: in.
Time (PDT)Temp. (ºf)Humidity (%)Dew Point (ºf)Barometer (inHG)Wind Speed (mph)Wind DirectionWind Gust (mph)1hr. Precip / Rain Total (in.)Snow Depth
11:51 PM509448.34---2.61--
10:51 PM519148.47---4.34--
9:51 PM548348.95-1.74ene6.08--
8:51 PM597249.98-2.61e6.95--
7:51 PM656352.09-0.87ene6.08--
6:51 PM705553.08-0.87sse8.69--
5:51 PM754954.53-2.61ne6.95--
4:51 PM794455.2-0.87e5.21--
3:51 PM843553.37-0.87e6.95--
2:51 PM833451.71-0.87e6.95--
1:51 PM803751.36-2.61ene7.82--
12:51 PM764452.49-1.74nne6.08--
11:51 AM715252.48-2.61se5.21--
10:51 AM666252.6-1.74se5.21--
9:51 AM587550.12-3.48sse6.08--
8:51 AM538849.54-1.74e4.34--
7:51 AM499647.91-1.74ese4.34--
6:51 AM489847.46-0.87ne3.48--
5:51 AM489847.46-0.87ne3.48--
4:51 AM479746.19---1.74--
3:51 AM489646.91---3.48--
2:51 AM499547.63-0.87nne4.34--
1:51 AM509147.48-0.87nnw4.34--
12:51 AM518947.87-0.87ene5.21--
High: 86ºf @3:51 PM    Low: 52ºf @5:51 AM     Approx. Precipitation / Rain Total: in.
Time (PDT)Temp. (ºf)Humidity (%)Dew Point (ºf)Barometer (inHG)Wind Speed (mph)Wind DirectionWind Gust (mph)1hr. Precip / Rain Total (in.)Snow Depth
11:51 PM548348.95-0.87ene4.34--
10:51 PM587449.76-1.74nne3.48--
9:51 PM626148.39-1.74ne4.34--
8:51 PM674846.65-0.87nne5.21--
7:51 PM713642.69---4.34--
6:51 PM753444.71-0.87s4.34--
5:51 PM792944.01-0.87ne8.69--
4:51 PM822744.69-0.87nne6.95--
3:51 PM862343.86-1.74nne5.21--
2:51 PM862444.97-1.74nne7.82--
1:51 PM842645.4-1.74ne6.95--
12:51 PM823148.35-1.74e4.34--
11:51 AM784152.37-2.61nne5.21--
10:51 AM734852.13-2.61sse5.21--
9:51 AM685852.66-1.74se3.48--
8:51 AM626851.31-0.87s4.34--
7:51 AM597852.15-1.74s2.61--
6:51 AM539150.44------
5:51 AM528848.56---1.74--
4:51 AM548549.59---1.74--
3:51 AM558048.94---0.87--
2:51 AM577448.79---2.61--
1:51 AM587148.65---2.61--
12:51 AM616047.01-1.74nne5.21--
High: 91ºf @3:51 PM    Low: 52ºf @6:51 AM     Approx. Precipitation / Rain Total: in.
Time (PDT)Temp. (ºf)Humidity (%)Dew Point (ºf)Barometer (inHG)Wind Speed (mph)Wind DirectionWind Gust (mph)1hr. Precip / Rain Total (in.)Snow Depth
11:51 PM625847.05-1.74n6.08--
10:51 PM645647.98-1.74n6.08--
9:51 PM675349.3-2.61nnw5.21--
8:51 PM714045.45-0.87ne5.21--
7:51 PM753444.71-0.87ese4.34--
6:51 PM783144.89-0.87ese6.08--
5:51 PM823047.48-0.87s6.95--
4:51 PM862546.05-0.87ne5.21--
3:51 PM911942.98-1.74nne6.08--
2:51 PM902549.41-1.74se6.08--
1:51 PM862748.09-2.61ene6.08--
12:51 PM833552.49-1.74s6.08--
11:51 AM783749.6-2.61s5.21--
10:51 AM744853.05-1.74s5.21--
9:51 AM695451.65-0.87ssw4.34--
8:51 AM646351.15---2.61--
7:51 AM587249.02-0.87s2.61--
6:51 AM528848.56---0.87--
5:51 AM528347---3.48--
4:51 AM537846.33---4.34--
3:51 AM537745.98---0.87--
2:51 AM576746.15---2.61--
1:51 AM586445.89-1.74wnw2.61--
12:51 AM605543.78---3.48--
High: 89ºf @3:51 PM    Low: ºf @9:51 PM     Approx. Precipitation / Rain Total: in.
Time (PDT)Temp. (ºf)Humidity (%)Dew Point (ºf)Barometer (inHG)Wind Speed (mph)Wind DirectionWind Gust (mph)1hr. Precip / Rain Total (in.)Snow Depth
11:51 PM625344.67-1.74nnw3.48--
10:51 PM644944.45-1.74n6.95--
9:51 PM---------
8:51 PM733140.57-0.87ne3.48--
7:51 PM762739.59---3.48--
6:51 PM802642.01-0.87nne6.08--
5:51 PM842342.19-0.87ese5.21--
4:51 PM871838.34-1.74e6.95--
3:51 PM891839.96-1.74ssw8.69--
2:51 PM892143.96-2.61s7.82--
1:51 PM872445.81-1.74sse6.08--
12:51 PM824055.27-2.61sse6.08--
11:51 AM774151.48-2.61sse6.08--
10:51 AM724247.64-1.74sse4.34--
9:51 AM665448.87-0.87s4.34--
8:51 AM616549.15---4.34--
7:51 AM567347.47-0.87s2.61--
6:51 AM508645.98---3.48--
5:51 AM498544.69-0.87w3.48--
4:51 AM518145.38-1.74wnw4.34--
3:51 AM537444.94-2.61wnw3.48--
2:51 AM547044.44-0.87w2.61--
1:51 AM566343.58---1.74--
12:51 AM585843.31---3.48--
High: 83ºf @3:51 PM    Low: 46ºf @3:51 AM     Approx. Precipitation / Rain Total: in.
Time (PDT)Temp. (ºf)Humidity (%)Dew Point (ºf)Barometer (inHG)Wind Speed (mph)Wind DirectionWind Gust (mph)1hr. Precip / Rain Total (in.)Snow Depth
11:51 PM605242.32-0.87n6.08--
10:51 PM624741.54-2.61nnw6.08--
9:51 PM654241.34-1.74nnw6.95--
8:51 PM703440.33-2.61nne6.95--
7:51 PM791933.21-2.61ne12.17--
6:51 PM801832.67-5.21e13.03--
5:51 PM811833.48-4.34e12.17--
4:51 PM821732.87-4.34ne14.77--
3:51 PM831835.11-5.21ne15.64--
2:51 PM831632.17-6.08e22.59--
1:51 PM821732.87-6.95ese20.86--
12:51 PM811934.84-4.34se11.3--
11:51 AM792439.11-2.61s6.95--
10:51 AM772841.38-1.74se5.21--
9:51 AM732737.03-1.74sw6.95--
8:51 AM654844.83-1.74n6.95--
7:51 AM604840.25-1.74nnw6.95--
6:51 AM574435.3-1.74ssw9.56--
5:51 AM564937.11-3.48se9.56--
4:51 AM516840.81-2.61nw9.56--
3:51 AM468942.94-1.74wsw7.82--
2:51 AM479044.22-1.74nnw6.95--
1:51 AM479244.8-3.48nnw7.82--
12:51 AM489145.5-2.61n5.21--
High: 73ºf @2:51 PM    Low: 43ºf @1:51 AM     Approx. Precipitation / Rain Total: in.
Time (PDT)Temp. (ºf)Humidity (%)Dew Point (ºf)Barometer (inHG)Wind Speed (mph)Wind DirectionWind Gust (mph)1hr. Precip / Rain Total (in.)Snow Depth
11:51 PM508545.67-1.74nne3.48--
10:51 PM518145.38-1.74nne4.34--
9:51 PM537444.94-1.74nne4.34--
8:51 PM576344.53-0.87ne5.21--
7:51 PM605543.78-0.87e4.34--
6:51 PM644743.36-0.87se6.08--
5:51 PM674243.14-0.87ne6.95--
4:51 PM694244.94-1.74e8.69--
3:51 PM734047.24-1.74n10.43--
2:51 PM734047.24-1.74nne10.43--
1:51 PM734047.24-2.61nne7.82--
12:51 PM704245.84-2.61ne7.82--
11:51 AM665147.35-1.74ese6.08--
10:51 AM595844.24-1.74n6.08--
9:51 AM537143.85-2.61sse5.21--
8:51 AM517342.65-1.74s5.21--
7:51 AM458641.07-2.61e3.48--
6:51 AM459142.53---2.61--
5:51 AM459142.53---2.61--
4:51 AM459343.1---2.61--
3:51 AM459142.53-0.87nne2.61--
2:51 AM449241.83-0.87ne3.48--
1:51 AM439541.67-1.74n3.48--
12:51 AM449241.83-1.74nnw5.21--
High: 64ºf @2:51 PM    Low: 40ºf @6:51 AM     Approx. Precipitation / Rain Total: in.
Time (PDT)Temp. (ºf)Humidity (%)Dew Point (ºf)Barometer (inHG)Wind Speed (mph)Wind DirectionWind Gust (mph)1hr. Precip / Rain Total (in.)Snow Depth
11:51 PM459042.25-0.87n4.34--
10:51 PM468842.65-1.74nnw5.21--
9:51 PM488343.09-0.87ese4.34--
8:51 PM507542.39-0.87ese7.82--
7:51 PM536641.95-1.74ese6.95--
6:51 PM566243.17-1.74se7.82--
5:51 PM595542.85-1.74sse7.82--
4:51 PM615343.74-1.74sse11.3--
3:51 PM634843-2.61ene10.43--
2:51 PM644843.91-1.74sw7.82--
1:51 PM644843.91-1.74ne8.69--
12:51 PM634843-2.61e11.3--
11:51 AM605141.82-1.74ene7.82--
10:51 AM575741.92-1.74ese6.95--
9:51 AM546442.1-1.74ne6.95--
8:51 AM507040.61-1.74nne4.34--
7:51 AM458440.46-0.87n3.48--
6:51 AM409739.22-1.74n3.48--
5:51 AM419740.21-0.87nnw3.48--
4:51 AM429440.4-1.74n4.34--
3:51 AM429640.94-1.74n3.48--
2:51 AM429540.67---3.48--
1:51 AM439541.67---3.48--
12:51 AM459142.53---2.61--
High: 63ºf @4:51 PM    Low: 38ºf @5:51 AM     Approx. Precipitation / Rain Total: in.
Time (PDT)Temp. (ºf)Humidity (%)Dew Point (ºf)Barometer (inHG)Wind Speed (mph)Wind DirectionWind Gust (mph)1hr. Precip / Rain Total (in.)Snow Depth
11:51 PM478542.73-0.87e3.48--
10:51 PM488343.09---1.74--
9:51 PM498143.43---5.21--
8:51 PM498444.38---4.34--
7:51 PM537745.98-0.87ene5.21--
6:51 PM576244.11-1.74se4.34--
5:51 PM596045.13-1.74s6.08--
4:51 PM636149.33-0.87ssw7.82--
3:51 PM626449.68-1.74sse6.08--
2:51 PM596748.06---6.95--
1:51 PM577649.51-1.74ene6.95--
12:51 PM615544.71-0.87n6.08--
11:51 AM625445.16-0.87wsw6.08--
10:51 AM586345.47-0.87s5.21--
9:51 AM507943.75-0.87ese4.34--
8:51 AM459543.65-0.87e3.48--
7:51 AM4010040-0.87s3.48--
6:51 AM3910039---2.61--
5:51 AM389937.74---1.74--
4:51 AM399738.22---2.61--
3:51 AM399738.22---3.48--
2:51 AM409438.41-0.87n3.48--
1:51 AM419439.41---2.61--
12:51 AM429239.85-0.87n3.48--
High: 56ºf @2:51 PM    Low: 39ºf @3:51 AM     Approx. Precipitation / Rain Total: in.
Time (PDT)Temp. (ºf)Humidity (%)Dew Point (ºf)Barometer (inHG)Wind Speed (mph)Wind DirectionWind Gust (mph)1hr. Precip / Rain Total (in.)Snow Depth
11:51 PM448640.09-1.74n3.48--
10:51 PM477740.17---2.61--
9:51 PM487339.76---2.61--
8:51 PM497340.73---4.34--
7:51 PM517242.3-0.87ene3.48--
6:51 PM546040.43-0.87ese3.48--
5:51 PM545739.11-0.87ese4.34--
4:51 PM556041.37-0.87ene6.95--
3:51 PM566142.74-0.87s6.08--
2:51 PM565540.06-0.87ene8.69--
1:51 PM564937.11-1.74se6.95--
12:51 PM565138.13-1.74ene6.08--
11:51 AM526440.2-2.61se6.95--
10:51 AM507442.04-1.74se6.08--
9:51 AM468341.13---3.48--
8:51 AM439641.94---3.48--
7:51 AM4110041-0.87sse2.61--
6:51 AM4010040---2.61--
5:51 AM3910039-0.87s3.48--
4:51 AM4010040---2.61--
3:51 AM3910039---1.74--
2:51 AM399938.74---1.74--
1:51 AM399938.74---0.87--
12:51 AM399838.48-0.87n2.61--
High: 53ºf @1:51 AM    Low: 39ºf @8:51 AM     Approx. Precipitation / Rain Total: in.
Time (PDT)Temp. (ºf)Humidity (%)Dew Point (ºf)Barometer (inHG)Wind Speed (mph)Wind DirectionWind Gust (mph)1hr. Precip / Rain Total (in.)Snow Depth
11:51 PM409638.95-0.87nne2.61--
10:51 PM419740.21---4.34--
9:51 PM419740.21---6.08--
8:51 PM429440.4-0.87w4.34--
7:51 PM439541.67---3.48--
6:51 PM449342.11-0.87s5.21--
5:51 PM459343.1-0.87sse6.08--
4:51 PM469444.37-0.87sse4.34--
3:51 PM479044.22-1.74ne5.21--
2:51 PM459543.65-0.87s4.34--
1:51 PM449141.54-0.87ne2.61--
12:51 PM449041.26-0.87nne4.34--
11:51 AM448640.09-0.87nne4.34--
10:51 AM429340.12-0.87ne4.34--
9:51 AM419639.95-0.87n4.34--
8:51 AM399537.69-2.61n6.95--
7:51 AM429640.94-1.74n6.95--
6:51 AM439641.94-0.87ese5.21--
5:51 AM469845.47-0.87n5.21--
4:51 AM469845.47-0.87nne9.56--
3:51 AM5210052-1.74wnw6.08--
2:51 AM5310053-0.87sw6.08--
1:51 AM539952.73---3.48--
12:51 AM539651.89-0.87sse6.95--
High: 73ºf @3:51 PM    Low: 45ºf @6:51 AM     Approx. Precipitation / Rain Total: in.
Time (PDT)Temp. (ºf)Humidity (%)Dew Point (ºf)Barometer (inHG)Wind Speed (mph)Wind DirectionWind Gust (mph)1hr. Precip / Rain Total (in.)Snow Depth
11:51 PM549552.6---7.82--
10:51 PM568250.58-1.74ssw9.56--
9:51 PM577850.21-1.74ssw7.82--
8:51 PM607050.18---3.48--
7:51 PM626750.91---4.34--
6:51 PM645949.38-0.87nne6.08--
5:51 PM675148.27-0.87e5.21--
4:51 PM714649.16-0.87ne6.95--
3:51 PM734147.89-1.74nne9.56--
2:51 PM724147-1.74e6.95--
1:51 PM724448.88-2.61ne8.69--
12:51 PM694345.56-2.61ene6.95--
11:51 AM654140.72-2.61n6.95--
10:51 AM625244.17-1.74ne6.08--
9:51 AM575842.37-2.61sse6.08--
8:51 AM537244.22-1.74sse5.21--
7:51 AM517643.7-1.74ese3.48--
6:51 AM458641.07-0.87ene3.48--
5:51 AM468441.44-0.87nne2.61--
4:51 AM479144.51---2.61--
3:51 AM489145.5-0.87e2.61--
2:51 AM489245.79---1.74--
1:51 AM499246.78---2.61--
12:51 AM489245.79---3.48--
High: 59ºf @6:51 PM    Low: 49ºf @11:51 PM     Approx. Precipitation / Rain Total: in.
Time (PDT)Temp. (ºf)Humidity (%)Dew Point (ºf)Barometer (inHG)Wind Speed (mph)Wind DirectionWind Gust (mph)1hr. Precip / Rain Total (in.)Snow Depth
11:51 PM499347.06-0.87e3.48--
10:51 PM519048.17-0.87ene3.48--
9:51 PM528848.56-0.87ese5.21--
8:51 PM538548.61-0.87ne4.34--
7:51 PM567949.58-1.74ene6.08--
6:51 PM597149.61-0.87se7.82--
Past Weather Disclaimer Note regarding "Approx. Precipitation / Rain Total"

Currently

Overcast 50°F
30.11in
Barometer
89%
Humidity
North 0.0mph
Wind
Overcast

Past Weather Nearby

More Local Information

Bookmark and Share